�������ċp�F�����K�X���j�^�v���󋵏��
Date,Time,�ċp�F�����K�X���j�^(cps),����,����(m/s)
2023/02/16,00:00,1.5,�k��,3.6
2023/02/16,00:10,1.5,�k��,3.5
2023/02/16,00:20,1.4,�k��,3.4
2023/02/16,00:30,1.5,�k��,4.0
2023/02/16,00:40,1.4,���k��,3.8
2023/02/16,00:50,1.6,���k��,4.9
2023/02/16,01:00,1.4,���k��,5.4
2023/02/16,01:10,1.4,���k��,6.1
2023/02/16,01:20,1.5,���k��,6.0
2023/02/16,01:30,1.4,���k��,7.6
2023/02/16,01:40,1.5,���k��,7.2
2023/02/16,01:50,1.4,���k��,6.4
2023/02/16,02:00,1.4,���k��,7.5
2023/02/16,02:10,1.5,�k��,7.5
2023/02/16,02:20,1.4,�k��,7.7
2023/02/16,02:30,1.4,�k��,8.0
2023/02/16,02:40,1.5,�k��,8.5
2023/02/16,02:50,1.5,�k��,9.2
2023/02/16,03:00,1.5,�k��,9.0
2023/02/16,03:10,1.4,�k��,8.2
2023/02/16,03:20,1.4,���k��,6.5
2023/02/16,03:30,1.4,�k��,6.2
2023/02/16,03:40,1.5,�k��,5.2
2023/02/16,03:50,1.5,�k��,3.2
2023/02/16,04:00,1.5,�k�k��,1.1
2023/02/16,04:10,1.5,-,CALM
2023/02/16,04:20,1.5,-,CALM
2023/02/16,04:30,1.5,�k�k��,1.8
2023/02/16,04:40,1.4,�k��,2.3
2023/02/16,04:50,1.4,���k��,2.0
2023/02/16,05:00,1.5,�k��,2.3
2023/02/16,05:10,1.5,�k��,3.6
2023/02/16,05:20,1.5,�k��,4.0
2023/02/16,05:30,1.4,�k��,3.2
2023/02/16,05:40,1.5,�k��,3.5
2023/02/16,05:50,1.4,�k��,3.2
2023/02/16,06:00,1.5,�k��,4.4
2023/02/16,06:10,1.4,�k��,6.7
2023/02/16,06:20,1.4,�k�k��,6.7
2023/02/16,06:30,1.5,�k��,5.9
2023/02/16,06:40,1.4,�k��,5.1
2023/02/16,06:50,1.5,�k��,5.1
2023/02/16,07:00,1.5,�k��,4.7
2023/02/16,07:10,1.6,�k��,5.6
2023/02/16,07:20,1.4,�k��,7.5
2023/02/16,07:30,1.5,�k��,5.4
2023/02/16,07:40,1.5,�k��,3.6
2023/02/16,07:50,1.5,�k��,3.1
2023/02/16,08:00,1.4,�k��,3.6
2023/02/16,08:10,1.4,�k��,2.9
2023/02/16,08:20,1.4,�k�k��,3.6
2023/02/16,08:30,1.5,�k�k��,3.9
2023/02/16,08:40,1.5,�k�k��,3.7
2023/02/16,08:50,1.5,�k��,5.7
2023/02/16,09:00,1.4,�k��,9.1
2023/02/16,09:10,1.5,�k�k��,7.5
2023/02/16,09:20,1.5,�k�k��,7.0
2023/02/16,09:30,1.4,�k��,6.9
2023/02/16,09:40,1.5,�k��,4.7
2023/02/16,09:50,1.6,�k��,4.8
2023/02/16,10:00,1.5,�k��,4.5
2023/02/16,10:10,1.5,���k��,6.3
2023/02/16,10:20,1.4,�k�k��,5.3
2023/02/16,10:30,1.5,�k�k��,5.3
2023/02/16,10:40,1.5,�k�k��,4.4
2023/02/16,10:50,1.5,�k��,3.5
2023/02/16,11:00,1.5,�k��,3.6
2023/02/16,11:10,1.5,�k�k��,3.6
2023/02/16,11:20,1.5,���k��,1.2
2023/02/16,11:30,1.5,���k��,2.6
2023/02/16,11:40,1.5,��,0.6
2023/02/16,11:50,1.4,���쐼,1.7
2023/02/16,12:00,1.4,��쐼,1.2
2023/02/16,12:10,1.4,���쓌,1.2
2023/02/16,12:20,1.5,���k��,2.0
2023/02/16,12:30,1.5,��,2.5
2023/02/16,12:40,1.5,��,2.0
2023/02/16,12:50,1.5,���k��,3.6
2023/02/16,13:00,1.5,�k��,5.0
2023/02/16,13:10,1.5,�k��,5.5
2023/02/16,13:20,1.5,�k��,6.0
2023/02/16,13:30,1.5,�k��,4.9
2023/02/16,13:40,1.5,���k��,4.7
2023/02/16,13:50,1.4,�k��,4.2
2023/02/16,14:00,1.6,���k��,4.1
2023/02/16,14:10,1.4,�k��,4.7
2023/02/16,14:20,1.4,�k��,4.5
2023/02/16,14:30,1.4,���k��,3.9
2023/02/16,14:40,1.4,�k��,4.5
2023/02/16,14:50,1.4,���k��,4.4
2023/02/16,15:00,1.4,��,3.4
2023/02/16,15:10,1.5,���k��,3.4
2023/02/16,15:20,1.5,���k��,3.3
2023/02/16,15:30,1.4,��,2.2
2023/02/16,15:40,1.5,�k��,1.2
2023/02/16,15:50,1.4,���쓌,1.8
2023/02/16,16:00,1.5,���쓌,1.4
2023/02/16,16:10,1.5,���쓌,2.9
2023/02/16,16:20,1.4,�쓌,2.3
2023/02/16,16:30,1.5,���쓌,2.5
2023/02/16,16:40,1.4,��쓌,2.0
2023/02/16,16:50,1.4,��쐼,1.5
2023/02/16,17:00,1.5,���쐼,3.1
2023/02/16,17:10,1.5,���쐼,4.0
2023/02/16,17:20,1.4,��,5.8
2023/02/16,17:30,1.5,��,7.2
2023/02/16,17:40,1.5,��,6.0
2023/02/16,17:50,1.5,��,6.2
2023/02/16,18:00,1.4,��,5.9
2023/02/16,18:10,1.4,��,6.1
2023/02/16,18:20,1.5,���k��,7.1
2023/02/16,18:30,1.4,��,5.8
2023/02/16,18:40,1.5,��,6.5
2023/02/16,18:50,1.4,��,6.1
2023/02/16,19:00,1.4,��,6.0
2023/02/16,19:10,1.5,���k��,6.8
2023/02/16,19:20,1.5,��,6.9
2023/02/16,19:30,1.4,���k��,6.3
2023/02/16,19:40,1.5,���k��,5.3
2023/02/16,19:50,1.5,�k��,4.1
2023/02/16,20:00,1.5,�k�k��,3.7
2023/02/16,20:10,1.4,�k�k��,2.3
2023/02/16,20:20,1.4,���k��,1.5
2023/02/16,20:30,1.4,�k��,4.1
2023/02/16,20:40,1.4,���k��,5.7
2023/02/16,20:50,1.5,�k��,5.4
2023/02/16,21:00,1.4,�k��,5.4
2023/02/16,21:10,1.5,�k��,4.0
2023/02/16,21:20,1.5,�k��,2.3
2023/02/16,21:30,1.5,�k��,3.0
2023/02/16,21:40,1.5,�k��,4.2
2023/02/16,21:50,1.4,�k��,2.6
2023/02/16,22:00,1.4,�k��,1.8
2023/02/16,22:10,1.6,�k��,2.8
2023/02/16,22:20,1.5,�k��,4.4
2023/02/16,22:30,1.4,�k��,5.2
2023/02/16,22:40,1.4,�k��,5.1
2023/02/16,22:50,1.5,�k��,4.9
2023/02/16,23:00,1.5,�k��,5.7
2023/02/16,23:10,1.4,�k��,4.7
2023/02/16,23:20,1.4,�k��,3.9
2023/02/16,23:30,1.5,���k��,3.2
2023/02/16,23:40,1.5,���k��,3.5
2023/02/16,23:50,1.4,���k��,3.1
